Hourly Data Report for April 14, 2020

NANAIMO A
BRITISH COLUMBIA
Current Station Operator: NAVCAN

49°03'16.000" N
123°52'12.000" W
28.00 m
1025365
YCD

Download Data

Hourly Data (April 2020)
Hourly Data Report for April 14, 2020
TIME
LST
Temp Definition
°C
Dew Point Definition
°C
Rel Hum Definition
%
Precip. Amount Definition
mm

Wind Dir Definition
10's deg

Wind Spd Definition
km/h
Visibility Definition
km
Stn Press Definition
kPa
Hmdx Definition


Wind Chill Definition


Weather Definition


00:00 8.8 -0.8 51 LegendMM 26 16 LegendMM 102.37     LegendNANA
01:00 7.5 -0.6 56 LegendMM 23 5 LegendMM 102.36     LegendNANA
02:00 6.6 -0.1 62 LegendMM 26 4 LegendMM 102.35     LegendNANA
03:00 5.4 0.0 68 LegendMM 22 3 LegendMM 102.34     LegendNANA
04:00 4.6 0.0 73 LegendMM 23 3 LegendMM 102.36     LegendNANA
05:00 3.5 0.0 78 LegendMM 17 3 LegendMM 102.35     LegendNANA
06:00 4.0 0.2 76 LegendMM 22 5 LegendMM 102.38     LegendNANA
07:00 6.5 2.2 74 LegendMM 4 6 LegendMM 102.40     LegendNANA
08:00 11.2 1.2 50 LegendMM 14 6 LegendMM 102.36     LegendNANA
09:00 13.5 0.3 40 LegendMM 1 14 LegendMM 102.37     LegendNANA
10:00 14.2 2.3 44 LegendMM 2 11 LegendMM 102.40     LegendNANA
11:00 14.6 3.2 46 LegendMM 36 12 LegendMM 102.34     LegendNANA
12:00 15.1 3.0 44 LegendMM 7 8 LegendMM 102.27     LegendNANA
13:00 15.8 2.8 41 LegendMM 36 9 LegendMM 102.25     LegendNANA
14:00 16.4 4.7 46 LegendMM 1 12 LegendMM 102.19     LegendNANA
15:00 16.8 4.0 42 LegendMM 2 11 LegendMM 102.09     LegendNANA
16:00 16.8 4.3 43 LegendMM 7 5 LegendMM 102.01     LegendNANA
17:00 16.5 3.7 42 LegendMM 12 6 LegendMM 101.94     LegendNANA
18:00 15.0 3.5 46 LegendMM 16 12 LegendMM 101.87     LegendNANA
19:00 14.0 2.7 46 LegendMM 19 2 LegendMM 101.86     LegendNANA
20:00 11.5 4.4 62 LegendMM 25 5 LegendMM 101.89     LegendNANA
21:00 11.6 5.2 65 LegendMM 24 10 LegendMM 101.91     LegendNANA
22:00 7.8 5.2 83 LegendMM 2 10 LegendMM 101.95     LegendNANA
23:00 7.1 4.7 84 LegendMM 14 4 LegendMM 102.01     LegendNANA

Notes on Data Quality.

Legend

  • E = Estimated
  • M = Missing
  • NA = Not Available*
  • [empty] = Indicates an unobserved value
Date modified: